Location: Unspecified
(29.9680°N, 0.0000°E)
Time: 01:41:37
(UTC+00:00)

Vanguard 1 Rocket - Pass Details

Date: 21 June 2019
Orbit: 652 x 4224 km, 34.3° (Epoch: 18 August)

Event Time Altitude Azimuth Distance (km) Brightness Sun altitude
Rises 21:13:44 0° 284° (WNW) 5,386 12.2 -23.1°
Reaches altitude 10° 21:18:04 10° 286° (WNW) 3,830 11.3 -23.7°
Maximum altitude 21:26:50 74° 11° (NNE) 1,028 7.6 -24.9°
Enters shadow 21:28:37 46° 84° (E) 1,187 7.7 -25.1°
